Theta_e
303 303 303 303 303 302 302 302 301 301 301 303 302 302 304 304 306 305 308 316 308 302 303 305 306 304 304 304 299 304 301 304 303 299 299 299 298 300 296 299 297 296 295 295 297 293 291 308 305 298 304 308 309 307
302 303 303 303 303 302 302 302 302 301 301 302 302 302 304 305 306 305 303 311 312 303 304 309 308 310 309 309 305 306 303 302 303 300 302 300 297 298 298 293 302 295 300 297 296 299 309 309 308 310 309 306 306 308
302 302 302 302 302 302 302 302 301 302 302 301 302 303 303 304 305 305 303 307 306 302 302 303 303 310 312 311 312 301 305 306 303 308 302 298 295 299 294 297 299 302 305 300 300 304 306 308 310 310 311 310 309 310
301 301 302 302 302 302 302 301 301 302 302 302 302 303 303 304 305 305 302 306 303 301 295 300 311 307 312 313 312 311 309 309 310 305 298 296 293 301 297 299 299 302 303 300 299 303 306 308 308 309 310 311 309 310
300 300 301 301 301 302 302 302 301 302 301 302 303 303 303 304 305 305 306 305 307 300 295 299 304 305 308 312 310 311 309 307 303 299 296 294 299 297 300 299 297 303 301 298 297 305 305 307 309 310 309 310 310 310
300 300 300 300 301 301 301 302 301 301 301 302 302 303 303 304 305 303 299 307 307 304 295 292 304 303 307 308 306 307 308 306 302 299 297 298 303 297 296 296 303 305 307 308 305 308 308 310 310 311 310 310 312 311
300 300 300 301 301 301 301 301 301 301 301 301 302 302 303 304 304 298 299 301 306 306 296 292 296 304 306 307 307 305 307 302 300 298 296 299 299 299 298 295 302 304 305 305 307 307 306 308 307 311 311 311 312 312
300 300 301 301 301 301 301 301 301 301 301 301 302 303 303 304 303 300 304 306 310 301 299 292 294 298 306 300 301 306 302 302 299 297 300 299 301 300 295 301 303 304 305 305 306 308 308 309 309 310 311 311 310 310
300 300 300 300 301 301 301 302 302 301 301 301 302 303 304 301 297 301 308 308 308 302 294 294 292 291 304 301 302 302 303 296 302 296 297 299 296 294 299 302 303 304 303 304 306 307 308 307 308 309 310 310 309 310
300 300 300 300 300 301 301 301 302 302 301 301 301 297 293 301 308 308 304 298 297 298 297 293 298 292 299 298 297 296 301 295 293 297 300 295 295 301 303 304 305 307 308 308 306 305 307 306 307 308 309 310 311 310
299 299 300 300 301 301 301 302 302 301 300 299 296 295 306 308 304 297 292 292 292 289 293 295 297 294 300 292 292 298 293 295 290 295 295 294 294 300 303 303 305 307 305 305 307 309 310 311 309 309 309 312 313 311
298 298 299 300 301 301 301 301 301 300 299 299 298 300 302 296 293 289 289 292 291 289 295 294 293 296 297 299 294 294 290 294 288 298 295 291 298 304 303 303 305 306 306 306 307 308 311 311 312 310 310 312 312 314
298 298 299 299 300 300 300 301 301 301 300 298 293 288 291 289 284 285 284 288 288 294 296 295 292 295 296 296 291 292 288 289 297 291 290 294 302 302 302 304 303 305 305 305 306 307 309 310 311 311 311 313 313 313
297 298 298 299 300 300 300 300 300 299 296 288 286 283 285 286 289 290 290 292 295 296 297 296 296 294 295 292 294 287 293 294 288 286 288 298 301 301 303 303 302 302 303 304 305 307 309 309 310 311 313 313 312 311
297 298 299 299 299 300 300 300 300 299 292 287 289 283 287 293 295 296 296 295 298 299 299 297 297 297 292 290 292 291 288 286 288 289 297 301 302 302 302 302 301 302 302 301 305 307 308 307 309 307 309 311 310 310
297 298 299 298 299 299 299 299 298 296 288 288 289 288 291 290 290 292 293 293 297 299 301 299 292 290 289 290 288 286 285 285 290 297 300 301 302 302 301 300 298 298 298 300 299 303 303 304 305 306 308 309 309 307
296 294 297 297 298 298 298 296 294 288 288 287 288 292 291 290 290 292 294 295 300 298 292 293 286 286 293 288 287 291 289 294 298 299 300 303 302 299 297 296 295 295 296 296 295 296 298 300 300 302 304 302 303 303
294 298 298 298 298 297 296 295 291 288 286 289 286 289 292 293 292 293 294 297 296 294 293 290 295 288 286 285 288 293 296 297 298 299 301 302 300 298 296 294 294 293 293 293 294 296 296 297 298 298 300 300 300 302
297 298 297 297 298 295 290 291 293 286 287 290 291 292 293 293 295 296 296 297 297 297 294 293 288 288 289 293 293 295 296 297 297 299 301 302 301 296 296 295 295 294 294 293 295 296 295 296 297 298 299 300 299 301
296 296 296 297 297 292 288 289 293 288 286 289 292 290 291 291 293 295 294 294 293 292 291 289 289 292 293 295 298 298 298 300 298 299 298 301 301 296 296 295 296 295 294 295 295 291 296 296 297 296 296 296 297 297
295 297 296 295 293 294 292 290 289 290 291 289 292 292 291 293 293 293 293 296 293 291 290 293 294 296 298 298 298 299 298 300 298 300 299 298 298 297 296 296 298 296 295 297 296 293 293 293 294 295 295 295 295 296
297 298 295 295 289 290 290 293 291 294 292 291 292 292 290 289 290 292 296 293 291 294 294 295 296 297 297 298 298 301 301 301 301 300 296 297 296 296 294 296 298 299 300 298 295 294 293 294 294 294 294 294 293 294
297 297 294 291 287 286 287 294 288 290 286 289 293 290 290 292 294 299 291 293 294 297 297 297 297 299 299 300 300 301 302 301 300 301 300 298 297 301 300 299 300 301 299 297 296 294 293 290 292 292 292 292 292 292
296 292 287 287 288 285 290 287 291 289 290 288 288 286 289 292 294 291 289 293 297 299 299 299 298 297 299 300 300 301 301 302 302 303 300 299 299 303 302 302 303 305 301 299 296 295 295 294 291 292 292 291 291 291
286 286 287 284 289 285 284 285 286 287 285 288 287 287 290 294 289 289 289 293 298 298 298 300 301 300 298 299 300 301 303 303 301 301 304 305 303 307 305 304 303 303 302 299 295 294 294 294 293 292 291 291 290 289
282 287 284 286 286 285 286 283 284 286 287 286 288 291 293 290 286 286 290 293 294 296 297 296 296 296 298 301 300 301 302 304 304 302 305 304 304 304 304 301 301 301 305 302 297 294 294 294 293 292 291 290 287 289
282 284 290 294 291 290 288 290 291 289 286 287 289 289 289 285 285 289 294 293 290 292 294 294 294 296 298 301 302 305 307 309 309 306 307 306 306 309 308 305 303 305 305 303 300 296 294 293 293 293 292 292 291 291
288 289 285 289 289 290 286 288 287 286 289 293 292 287 285 285 286 290 291 293 296 297 302 300 299 300 301 302 303 305 308 311 311 310 310 310 311 310 309 308 308 288 304 304 301 298 296 294 294 293 292 291 291 292
288 291 292 287 289 289 290 289 289 294 297 294 290 289 290 293 292 293 295 297 298 298 297 299 302 306 305 307 308 309 311 311 307 303 302 302 303 305 308 308 304 305 303 301 288 293 296 295 295 294 293 292 292 292
288 293 289 288 287 288 295 297 295 297 298 297 298 295 296 295 297 301 302 300 298 299 300 302 302 302 301 302 302 304 310 312 311 307 304 303 305 307 308 306 305 303 302 301 298 296 287 293 292 295 293 292 291 291
294 294 290 290 290 295 296 298 298 298 298 297 298 294 293 296 300 302 303 301 299 299 299 298 298 300 300 300 300 299 301 306 305 307 309 311 310 309 308 307 305 304 302 301 299 296 294 294 294 293 292 292 291 291
292 289 290 287 291 296 298 296 296 295 296 295 294 296 297 294 291 296 302 302 298 296 293 296 297 297 301 302 301 299 290 299 301 304 308 310 312 310 308 307 306 304 303 302 300 298 296 294 293 293 293 293 294 294
291 291 292 291 291 290 295 294 293 292 294 294 293 294 294 293 290 295 304 303 299 297 297 299 300 301 302 301 298 297 293 297 297 289 288 288 287 297 307 308 307 304 303 302 301 300 299 297 296 295 295 295 295 296
Wind_Speed
10 10 10 9 10 10 9 9 9 8 9 9 8 9 11 11 9 8 5 1 6 6 14 16 16 13 10 9 9 4 8 7 8 10 9 5 4 4 5 10 12 13 9 10 8 11 6 17 19 17 13 14 15 10
9 10 11 11 10 9 9 10 9 9 10 7 8 9 12 11 10 8 7 4 2 6 11 15 16 17 16 13 10 5 8 4 5 6 3 4 8 9 12 12 7 8 5 8 7 13 22 16 14 18 17 17 15 6
10 11 11 11 11 10 10 11 10 9 10 9 9 11 12 11 11 7 7 9 5 10 15 16 13 13 17 17 14 10 7 7 11 9 7 4 8 9 11 10 10 13 14 14 15 13 15 20 14 8 11 10 8 5
11 11 11 11 11 11 10 10 11 11 10 11 11 11 12 12 12 10 7 6 6 8 8 5 4 5 4 9 13 18 15 3 6 3 3 5 7 8 11 17 17 14 16 19 21 21 21 13 8 12 12 13 7 9
12 12 12 12 12 12 12 12 11 11 11 12 12 12 12 12 11 11 10 8 8 8 7 11 20 21 18 11 11 14 11 11 8 5 4 7 9 9 13 17 16 15 20 12 13 17 16 12 12 14 14 14 9 7
14 14 14 13 13 14 13 13 12 12 11 12 12 13 12 13 8 7 6 9 9 5 4 6 7 12 11 11 17 15 14 12 7 5 6 5 11 9 10 10 8 14 8 12 14 14 17 18 15 17 17 16 8 8
15 15 14 15 15 14 14 14 13 13 12 12 13 13 12 11 8 6 4 2 6 5 4 5 6 6 5 6 9 7 7 4 5 5 6 12 13 10 11 22 18 20 19 18 18 18 17 17 15 14 12 14 7 9
14 14 15 15 15 14 14 15 14 13 12 12 13 12 12 11 11 11 12 13 6 2 3 6 6 9 11 7 9 8 8 5 6 4 8 13 13 10 10 12 11 12 14 15 15 14 15 15 16 14 12 13 12 10
15 15 15 15 16 15 14 13 14 12 10 10 9 9 9 6 5 10 8 17 10 8 4 6 8 7 7 7 6 6 5 6 5 9 14 11 13 15 13 13 15 18 19 19 19 19 18 16 17 11 11 11 14 12
16 17 18 17 16 17 15 14 13 11 10 7 6 4 5 8 10 8 5 6 7 6 6 8 10 12 8 5 4 4 7 7 9 10 9 13 17 20 21 18 16 19 16 19 20 17 17 17 15 17 14 13 11 13
14 15 16 17 17 16 15 14 12 9 8 4 5 6 2 3 5 4 5 7 5 4 5 7 14 13 8 7 6 3 6 5 4 6 9 7 10 10 6 2 6 10 13 16 17 17 20 21 17 15 14 12 10 12
15 16 15 15 17 16 16 14 13 9 4 3 4 4 2 3 5 5 5 5 6 8 10 9 8 8 5 2 4 3 6 7 8 4 5 6 4 6 4 8 11 13 17 18 17 22 24 18 14 11 9 11 9 5
16 16 16 18 16 15 14 15 15 12 2 1 4 2 5 4 6 8 10 7 7 7 6 7 6 6 5 4 3 5 7 8 6 8 11 9 7 4 8 10 13 16 19 20 20 22 20 15 7 9 10 3 6 6
15 15 16 16 15 13 14 15 14 8 4 4 5 6 6 6 8 9 11 9 5 5 5 6 6 5 3 6 4 5 8 5 6 7 10 7 5 8 12 14 17 19 20 23 19 21 13 9 3 5 6 6 6 6
13 15 15 14 13 15 15 15 13 5 3 4 5 6 8 8 6 4 4 2 9 7 6 3 4 4 3 4 5 6 5 6 7 7 3 4 10 13 15 18 21 20 18 17 17 16 8 8 7 4 4 5 5 5
13 10 7 8 7 12 13 15 7 3 1 4 6 7 5 5 4 6 4 4 6 3 2 3 3 4 7 5 8 8 6 9 9 7 7 10 13 14 18 20 18 14 10 13 9 3 6 3 3 0 5 2 3 2
8 3 8 10 15 14 16 4 4 6 5 5 5 8 6 5 6 6 8 8 1 2 5 3 4 8 4 4 5 6 11 7 7 8 7 11 13 15 15 11 7 6 5 5 6 9 9 7 7 6 1 3 3 2
3 6 14 15 13 6 4 4 4 3 6 7 5 5 9 11 12 11 6 6 5 5 5 5 4 5 5 8 9 7 1 6 8 6 6 9 11 12 9 6 5 5 5 5 6 5 5 6 2 3 3 2 2 2
1 6 6 4 9 3 4 5 4 4 8 7 9 10 10 8 7 9 9 8 8 7 6 4 7 7 9 10 12 12 12 10 9 8 7 7 7 8 10 5 6 5 5 4 3 0 1 2 3 3 2 2 1 1
3 7 5 4 5 3 4 2 2 5 6 4 7 9 10 9 10 9 9 10 10 10 11 9 13 13 11 9 10 8 9 9 9 9 8 7 6 5 8 5 5 2 4 4 1 3 2 2 3 3 3 3 1 3
7 8 9 4 1 4 3 4 6 4 5 7 8 7 7 7 9 9 10 9 10 12 14 13 14 13 14 13 11 10 11 9 9 7 8 7 5 7 3 4 7 3 4 2 1 3 1 3 2 2 2 3 3 4
3 14 3 4 1 2 4 4 4 2 4 7 9 9 9 9 10 9 6 5 6 12 12 12 12 11 14 17 14 13 12 13 11 5 1 4 5 3 4 6 8 3 1 2 2 3 3 3 3 3 3 4 4 5
6 5 4 1 3 4 4 3 5 5 5 4 4 4 4 4 2 2 3 6 7 10 10 11 14 17 14 12 12 12 11 9 4 4 3 5 7 8 6 7 9 2 3 4 3 4 3 3 4 3 4 4 5 5
1 3 3 3 5 4 4 5 4 4 5 6 4 6 6 4 4 4 7 9 10 7 5 9 8 9 10 13 9 7 6 5 6 2 5 8 9 8 6 6 3 2 6 6 5 4 4 5 5 4 4 4 5 5
3 5 4 4 4 4 5 5 5 4 7 8 7 7 4 5 5 6 9 3 4 4 5 7 7 7 6 5 4 2 10 10 5 6 8 10 9 5 6 4 4 3 6 7 6 6 5 6 5 5 5 5 7 7
5 7 6 6 5 6 4 4 3 5 4 4 4 5 5 4 4 4 3 8 10 11 10 7 7 6 7 6 5 4 5 8 9 9 10 6 6 4 4 7 5 5 4 8 9 7 5 6 7 8 7 8 7 8
4 4 5 4 2 4 4 4 6 4 4 3 2 2 2 4 4 2 4 4 5 7 8 8 7 8 9 7 5 6 7 8 8 4 2 6 2 1 1 3 6 4 5 11 8 10 8 7 8 8 8 7 7 7
4 3 4 4 5 4 6 5 4 2 3 3 4 2 4 2 3 4 3 6 8 8 3 3 6 7 6 6 7 6 7 7 5 4 3 1 2 3 4 6 6 2 3 10 10 8 8 8 7 8 9 8 7 7
5 4 3 6 6 3 4 4 3 3 2 3 4 1 1 2 2 5 5 5 8 6 6 5 2 3 5 6 6 7 5 5 5 7 8 5 5 5 4 9 9 7 9 11 9 8 11 8 9 10 10 8 8 8
3 1 3 4 4 4 2 3 4 5 4 3 2 6 4 2 3 7 7 3 5 7 5 5 6 5 4 4 5 8 5 3 3 4 3 2 4 7 8 9 9 9 9 11 11 12 9 11 12 11 10 8 8 8
1 1 4 4 4 3 5 4 4 4 3 3 6 6 4 2 2 4 9 9 8 10 9 8 8 8 8 8 9 9 7 6 10 10 8 4 4 9 9 9 9 9 10 13 12 11 11 10 10 12 12 12 13 11
3 5 3 4 4 3 2 3 3 2 1 3 6 5 3 4 3 6 8 9 9 8 8 10 9 8 8 7 8 6 5 8 8 8 10 6 3 8 10 9 10 9 11 13 13 14 14 13 11 12 12 17 17 17
5 5 5 5 4 2 2 3 3 2 3 3 4 1 3 3 5 4 4 6 7 8 10 9 9 7 7 8 8 8 9 8 11 5 5 5 6 4 9 8 10 9 12 12 13 13 15 17 15 16 16 16 16 18
Wind_Direction
253 258 259 258 261 270 275 279 282 290 298 308 310 311 315 321 325 299 325 96 283 288 293 287 281 275 267 248 268 14 276 185 269 272 298 298 268 341 304 279 294 297 294 292 313 301 298 359 332 331 327 312 329 6
259 260 260 259 259 261 267 272 271 281 290 301 300 301 304 311 323 303 272 174 329 264 289 312 287 281 278 274 282 235 290 308 328 280 296 312 305 301 285 277 261 274 232 318 294 305 322 313 326 326 306 298 302 15
262 261 259 259 257 260 262 266 275 278 281 286 281 290 295 302 303 300 300 314 267 278 274 251 247 243 218 235 243 257 229 266 255 283 304 298 274 295 278 274 295 284 274 273 278 270 297 318 309 318 337 327 26 313
263 267 266 267 260 257 254 261 269 270 271 276 274 277 283 288 293 300 269 268 271 292 280 295 72 242 261 240 212 222 253 245 281 184 252 273 269 274 283 297 292 293 295 285 280 278 276 291 343 344 334 323 352 331
256 261 262 264 265 262 256 253 262 265 272 273 271 269 273 281 288 283 251 238 253 266 318 316 319 273 240 202 218 225 219 237 223 244 247 260 263 292 272 271 268 263 266 271 281 304 306 298 323 327 319 312 323 349
256 257 258 259 263 265 259 254 256 259 270 271 273 276 275 276 288 276 254 188 199 224 260 277 333 288 254 226 223 225 219 228 228 228 237 226 256 265 275 273 298 306 303 255 275 289 294 300 308 302 297 292 347 331
259 259 260 258 255 255 251 251 252 255 263 268 273 276 271 278 267 235 343 339 326 118 246 262 256 188 215 202 217 208 219 186 210 229 238 256 266 191 257 268 285 304 304 301 299 297 275 271 281 290 295 289 283 285
260 263 264 260 258 256 256 254 250 256 260 266 271 271 270 277 277 258 250 194 197 184 276 268 264 277 171 236 211 199 160 164 186 239 237 231 232 215 256 259 287 299 307 312 303 293 286 284 282 275 267 277 268 280
261 266 270 272 268 262 257 249 244 249 265 278 277 282 265 225 232 240 232 166 200 242 252 224 250 283 155 234 273 165 221 195 228 216 238 246 237 228 242 268 274 317 314 304 297 296 295 287 289 278 267 260 259 261
260 264 266 262 262 256 246 250 244 234 256 268 252 220 233 201 143 115 155 184 203 208 234 253 247 252 274 293 282 264 179 207 237 217 227 245 251 263 265 274 322 310 330 324 318 310 300 288 278 276 269 270 247 250
262 272 270 258 256 254 245 242 220 218 236 213 222 226 348 110 173 196 211 206 185 227 227 246 240 249 249 279 274 301 313 279 259 203 213 218 244 242 187 231 286 346 337 327 316 307 294 287 269 272 273 275 257 230
260 269 265 265 252 247 245 227 212 203 218 28 343 304 293 230 210 217 215 180 215 229 180 195 211 216 261 124 217 228 246 254 249 143 209 235 251 90 39 353 347 336 327 322 322 309 300 291 261 250 274 262 222 132
258 266 263 266 252 236 241 229 206 237 316 351 238 229 223 194 231 216 190 191 202 205 187 180 164 157 157 163 200 231 233 240 270 255 247 260 93 8 349 333 332 331 328 319 313 310 301 301 247 232 247 188 140 147
264 261 267 259 238 240 228 206 202 212 191 227 200 227 224 186 224 214 227 228 227 204 203 160 153 176 126 190 224 236 235 287 245 228 238 62 19 332 340 337 331 321 319 311 308 302 283 296 166 232 251 193 161 182
263 268 263 245 244 235 208 193 200 176 189 235 220 230 224 251 291 298 334 177 204 229 131 170 206 205 160 190 221 237 241 252 233 260 6 348 342 352 337 332 322 315 313 304 301 290 268 297 186 167 258 171 180 150
271 263 234 197 188 172 168 187 180 148 219 226 230 239 225 262 276 287 269 285 302 111 134 228 256 223 188 218 197 208 243 245 269 11 328 341 355 344 331 325 314 304 305 302 326 305 53 337 67 114 181 239 144 142
168 240 193 196 187 170 175 178 170 182 227 219 225 248 248 266 265 249 265 263 236 219 230 231 216 225 253 242 248 232 248 319 347 316 345 346 347 339 328 314 340 331 339 353 21 38 22 13 4 337 19 24 23 165
256 153 175 175 183 159 161 212 186 226 232 223 231 239 230 236 245 260 236 272 253 236 229 237 272 246 241 251 239 248 108 278 273 305 358 345 343 336 323 309 307 316 322 345 5 23 1 327 47 28 14 11 222 178
66 106 99 132 162 154 170 185 208 244 223 239 236 247 264 249 251 269 276 262 247 250 244 212 243 246 255 274 288 292 301 316 314 331 322 351 339 340 317 300 314 319 305 308 291 64 89 22 48 32 358 356 25 108
142 114 125 165 205 188 182 169 292 268 265 271 264 254 252 248 256 251 251 246 237 234 235 233 242 253 264 254 265 275 283 283 302 306 315 301 347 321 293 287 282 252 270 239 223 324 46 66 55 30 20 22 116 111
186 131 119 118 247 264 271 174 216 249 282 281 280 274 263 260 256 256 251 245 251 244 249 240 242 250 254 264 275 284 286 295 292 300 308 305 335 299 240 255 254 226 258 300 304 120 136 46 57 47 67 72 73 84
145 174 122 169 112 274 255 226 274 284 252 250 281 258 249 249 252 250 254 236 246 247 244 252 257 263 256 254 259 252 258 262 267 289 273 305 284 266 210 237 252 235 47 51 30 80 86 76 78 75 86 87 89 106
167 177 130 56 213 208 264 183 233 225 246 235 223 236 235 232 287 167 220 224 249 237 232 228 235 245 255 263 263 261 252 261 285 256 276 262 269 255 230 242 252 246 132 106 95 109 98 103 85 92 96 91 100 106
235 203 196 204 217 242 200 218 236 257 241 252 263 265 272 180 190 227 242 236 235 251 236 230 223 225 231 241 255 289 296 226 230 222 245 246 259 192 206 239 209 124 75 120 128 127 115 106 116 101 96 101 92 89
202 194 216 228 220 246 231 244 242 250 260 274 268 266 268 194 219 244 262 60 34 33 12 354 333 310 264 250 223 217 260 238 221 206 218 223 252 172 171 171 113 106 125 124 136 135 144 117 124 122 117 114 114 109
232 178 203 208 192 222 231 238 230 257 288 274 258 294 317 310 301 334 37 349 321 313 308 308 291 278 283 297 289 282 285 282 217 225 240 240 218 203 158 166 147 156 141 120 133 147 136 126 130 124 116 112 113 121
258 220 209 216 236 272 281 301 297 276 266 246 239 260 288 327 339 352 322 304 285 277 259 240 231 253 243 257 265 259 274 295 296 284 77 250 199 102 139 160 145 167 144 119 137 141 149 143 131 132 124 124 130 127
269 255 246 282 259 253 277 288 281 276 263 309 352 20 359 323 295 349 264 283 308 311 317 149 193 219 234 248 254 273 271 261 249 225 226 143 106 128 133 107 108 130 135 126 127 137 145 147 146 131 127 124 120 123
246 258 252 249 238 233 249 248 265 212 231 340 338 86 266 65 338 283 295 4 336 354 5 1 23 214 223 228 252 264 271 260 233 190 192 197 177 156 147 112 146 152 119 116 108 133 136 148 125 123 126 122 118 117
254 210 282 251 240 245 242 218 280 296 345 346 348 116 106 82 301 291 315 82 342 6 27 29 41 27 51 56 21 9 347 315 335 329 299 232 139 146 131 146 156 134 130 127 129 123 107 116 122 121 120 122 124 124
342 309 268 249 288 288 269 328 305 281 283 351 49 65 65 148 324 335 10 6 9 24 23 29 32 23 21 30 25 356 349 15 356 343 344 322 175 148 146 155 143 143 141 129 143 152 148 141 138 139 134 134 137 141
208 228 268 308 312 303 310 293 326 296 36 84 74 19 19 68 34 347 10 1 16 14 10 10 4 23 13 43 32 352 314 307 314 310 290 272 211 159 143 154 144 151 148 146 150 145 153 145 146 145 145 149 155 152
230 255 258 269 252 267 272 295 276 279 117 98 91 136 67 51 53 6 333 15 18 13 4 359 342 20 24 52 26 343 327 310 298 250 284 312 295 273 140 161 146 149 159 149 144 152 147 145 147 152 156 158 155 156